DELTA 1 DEB, 12242

Orbit data source: Space-Track

DELTA 1 DEB, 12242 is space debris in SSO originally from a launch on Sun, 05 Mar 1978 UTC launched from the Air Force Western Test Range (AFWTR). Debris objects in space refer to the collection of defunct objects orbiting the Earth. Examples of debris include non-operational satellites, rocket bodies, and fragments generated from explosions, collisions, or faulty payload assembly.

Loading next visibility...
Identifier
12242, 1978-026CK
Orbit
SSO
Country
Flag of USUS
Related business
Manufacturer
Unknown
Mission
Spacecraft
Bus & Motor
Unknown
Mass
Unknown
Launch date (UTC)
1978-03-05 (48 years ago)
Launch vehicle
Unknown
Launch site
Air Force Western Test Range (AFWTR)
Object type
Payload
Rocket body
Debris
Shape & HBR
Unknown shape, 0.1 m
Radar Cross Section
Medium (>0.1 m² and <1 m²)

Expand to show TLE details & history
Last TLE update: 2 days ago

TLE from 2 days ago
0 DELTA 1 DEB
1 12242U 78026CK  26171.38292125  .00000110  00000-0  10245-3 0  9990
2 12242  98.9466 115.8985 0067134 226.3227 133.2362 13.99885811309989
Epoch: 2026-06-20T09:11Z
TLE epoch observation values (Epoch: 2026-06-20T09:11:24.396Z)
Latitude
0.00001°
Longitude
69.44851°
Altitude
930.693 km
Speed
7.369 km/s
True Right ascension
07h 43m 35s
True Declination
0° 00' 00"
Sunlit
Object was in daylight at epoch
Visualization orbit readout
Latitude
Unknown
Longitude
Unknown
Altitude
Unknown
Speed
Unknown
Apparent Right ascension
Unknown
Apparent Declination
Unknown
Sunlit
N/A
Visualization observer readout
Local Sidereal Time
02:00:07
Azimuth
Unknown
Elevation
Unknown
Doppler factor
Unknown
Orbital elements
Apogee altitude
940.191 km
Perigee altitude
842.584 km
Semi-major axis
7,269.524 km
Eccentricity
0.00671
Inclination
98.9466°
RAAN
115.8985°
Arg. of periapsis
226.3227°
True anomaly
133.79345°
Mean anomaly
133.2362°
Eccentric anomaly
133.51514°
Mean motion
3.50174 °/min
Orbital period
102.81 mins
BSTAR
0.00010245
Loading maneuver chart data...
Computing Atmospheric mass density...
Loading historical data...
Loading historical data...
Loading historical data...
Loading historical data...
Loading historical data...
Loading historical data...
Loading historical data...

Documentation

Showing up to 5 results
|